This demonstration page uses our WeatherBlox Daily Observations layout. Learn more.

Left ArrowRight Arrow

Hourly Observations for June 7, 2021

Temp ( °F °C ) Dew Point ( °F °C ) Humidity (%) Winds ( mph kmh ) Pressure ( in mb ) Visibility ( mi km ) Precip ( " mm )
12:56 am 00:56 Mostly Clear 72 22.2 63 17.2 73 73 S 10 17 29.74 1007 10 16 0.00 0.00
1:56 am 01:56 Mostly Cloudy 71 21.7 63 17.2 76 76 S 12 19 29.74 1007 10 16 0.00 0.00
2:56 am 02:56 Mostly Cloudy 70 21.1 64 17.8 82 82 S 12 19 29.73 1007 10 16 0.00 0.00
3:56 am 03:56 Clear 69 20.6 64 17.8 84 84 S 12 19 29.72 1007 10 16 0.00 0.00
4:56 am 04:56 Partly Cloudy 69 20.6 64 17.8 84 84 S 12 19 29.73 1007 10 16 0.00 0.00
5:56 am 05:56 Clear 67 19.4 64 17.8 91 91 S 7 11 29.73 1007 10 16 0.00 0.00
6:56 am 06:56 Sunny 67 19.4 65 18.3 93 93 SSE 5 7 29.74 1007 10 16 0.00 0.00
7:56 am 07:56 Sunny 70 21.1 66 18.9 87 87 SSE 10 17 29.75 1008 10 16 0.00 0.00
8:56 am 08:56 Sunny 73 22.8 68 20 84 84 SSE 9 15 29.77 1008 10 16 0.00 0.00
9:56 am 09:56 Sunny 77 25 69 20.6 77 77 S 14 22 29.78 1009 10 16 0.00 0.00
10:56 am 10:56 Sunny 80 26.7 69 20.6 69 69 S 12 19 29.78 1009 10 16 0.00 0.00
11:56 am 11:56 Sunny 83 28.3 69 20.6 63 63 S 13 20 29.77 1008 10 16 0.00 0.00
12:56 pm 12:56 Mostly Sunny 86 30 68 20 55 55 SSE 10 17 29.77 1008 10 16 0.00 0.00
1:56 pm 13:56 Mostly Sunny 86 30 64 17.8 48 48 S 14 22 29.75 1008 10 16 0.00 0.00
2:56 pm 14:56 Mostly Sunny 87 30.6 64 17.8 46 46 SSE 14 22 29.75 1008 10 16 0.00 0.00
3:56 pm 15:56 Mostly Sunny 88 31.1 63 17.2 43 43 S 15 24 29.74 1007 10 16 0.00 0.00
4:56 pm 16:56 Mostly Sunny 86 30 64 17.8 48 48 S 13 20 29.74 1007 10 16 0.00 0.00
5:56 pm 17:56 Mostly Sunny 87 30.6 65 18.3 48 48 S 15 24 29.72 1007 10 16 0.00 0.00
6:56 pm 18:56 Mostly Sunny 86 30 65 18.3 49 49 SSE 13 20 29.72 1007 10 16 0.00 0.00
7:56 pm 19:56 Sunny 84 28.9 65 18.3 53 53 SSE 9 15 29.74 1007 10 16 0.00 0.00
8:56 pm 20:56 Sunny 80 26.7 64 17.8 58 58 SSE 8 13 29.76 1008 10 16 0.00 0.00
9:56 pm 21:56 Clear 78 25.6 68 20 71 71 SSE 14 22 29.79 1009 10 16 0.00 0.00
10:56 pm 22:56 Clear 75 23.9 67 19.4 76 76 SSE 14 22 29.83 1010 10 16 0.00 0.00
11:56 pm 23:56 Clear 73 22.8 67 19.4 81 81 S 14 22 29.84 1010 10 16 0.00 0.00

Powered by AerisWeather